sat.trackr.live / text

‹ back to catalog

DISKSAT D

NORAD 67221 · 2025-305C

PAYLOAD ACTIVE UNKNOWN

§ Identity

Operator
Country
US
Launch date
2025-12-18
Launch site
WLPIS
Launch vehicle
Mass (kg)
RCS (m²)

External: N2YO · Heavens-Above · Gunter

§ Orbital elements

Epoch: 2026-05-25T04:33:38.801088Z

Period
95.44 min
Inclination
45.0022°
Eccentricity
0.0004030
Mean motion
15.08726186 rev/d
Perigee alt
537.3 km
Apogee alt
542.9 km
Semi-major
6,918.2 km
B*
4.3829e-4
RAAN
205.5967°
Arg perigee
21.7693°
Mean anomaly
338.3353°
Rev number
2,384

§ Raw data

DISKSAT D1 67221U 25305C   26145.19003242  .00006749  00000+0  43829-3 0  99962 67221  45.0022 205.5967 0004030  21.7693 338.3353 15.08726186 23841

JSON: /api/v1/satellites/67221 · /tle

For live sub-satellite position, see the globe view (requires WebGL).

§ Visibility from observer

Set your observer location to see the next 7 days of passes ≥ 10°. The values pass through the URL so the page stays shareable.

No JS? Fill the form by hand. The geolocation button needs JavaScript.